Flag for Dominican Republic Weather past 2 weeks in Santiago de los Caballeros, Dominican Republic

Now
70 °F

Passing clouds.


Feels Like: 70 °F
Forecast: 66 / 79 °F
Wind: No wind

Location: Santiago

Current Time: Dec 18, 2014 at 1:48:04 AM

Latest Report: Dec 18, 2014 at 1:00 AM


Visibility: N/A

Pressure: 30.07 "Hg

Humidity: 100%

Dew point: 70 °F

Location of Santiago de los CaballerosLocation

Historic Weather in Santiago de los Caballeros — Graph

°F

Santiago de los Caballeros temperature yesterday

Maximum temperature yesterday: 81 °F (at 12:00 PM)
Minimum temperature yesterday: 70 °F (at 6:00 AM)
Average temperature yesterday: 75 °F

Past Weeks' High & Low Weather Summary

 TemperatureHumidityPressure
High86 °F (Dec 10, 2:00 PM)100% (Dec 3, 3:00 AM)30.09 "Hg (Dec 3, 3:00 AM)
Low61 °F (Dec 8, 6:00 AM)29% (Dec 3, 2:00 AM)29.83 "Hg (Dec 3, 4:00 PM)
Average74 °F87%29.96 "Hg
* Reported Dec 3 1:00 AM — Dec 18 1:00 AM, Santiago de los Caballeros, Weather by CustomWeather, © 2014

Note: Actual official high and low records may vary slightly from our data, if they occured in-between our weather recording intervals... More about our weather records

Advertising

Santiago de los Caballeros weather history for previous 24 hours

 ConditionsComfort  
Time TempWeatherWind HumidityBarometerVisibility
1:00 AM
Dec 18
70 °FPassing clouds.No wind100%30.07 "HgN/A
12:00 AM70 °FPassing clouds.No wind100%30.09 "HgN/A
11:00 PM
Dec 17
70 °FPassing clouds.No wind94%30.09 "HgN/A
10:00 PM72 °FMild.N/A94%30.09 "HgN/A
9:00 PM73 °FPassing clouds.5 mph89%30.07 "HgN/A
8:00 PM73 °FPassing clouds.5 mph89%30.04 "HgN/A
7:00 PM75 °FPassing clouds.7 mph83%30.04 "HgN/A
6:00 PM77 °FPartly sunny.12 mph79%30.01 "HgN/A
5:00 PM79 °FBroken clouds.13 mph74%30.01 "HgN/A
4:00 PM81 °FScattered showers. Broken clouds.7 mph70%29.98 "Hg5 mi
3:00 PM81 °FBroken clouds.7 mph70%29.98 "HgN/A
2:00 PM79 °FPartly sunny.5 mph70%30.04 "HgN/A
1:00 PM79 °FScattered showers. Partly sunny.12 mph74%30.04 "Hg5 mi
12:00 PM81 °FScattered showers. Partly sunny.12 mph70%30.07 "Hg5 mi
11:00 AM79 °FScattered clouds.12 mph74%30.09 "HgN/A
10:00 AM77 °FPassing clouds.7 mph83%30.09 "HgN/A
9:00 AM72 °FScattered clouds.3 mph100%30.09 "HgN/A
8:00 AM70 °FScattered clouds.No wind100%30.07 "HgN/A
7:00 AM70 °FPassing clouds.No wind100%30.04 "HgN/A
6:00 AM70 °FPassing clouds.5 mph100%30.04 "HgN/A
5:00 AM72 °FPassing clouds.6 mph94%30.04 "HgN/A
4:00 AM73 °FPassing clouds.5 mph94%30.01 "HgN/A
3:00 AM72 °FPassing clouds.5 mph100%30.04 "HgN/A
2:00 AM73 °FPassing clouds.5 mph94%30.04 "HgN/A
1:00 AM73 °FPartly cloudy.5 mph100%29.98 "HgN/A
Weather by CustomWeather, © 2014

See weather overviewHow to use our weather pages